Hourly Weather Barnala

Today, 19 April, Monday

Time Temperature Precipitation Wind Pressure Humidity
00:00 +27°C° 0 mm 3 mps 736 mmHg 33%
01:00 +26°C° 0 mm 2 mps 736 mmHg 34%
02:00 +26°C° 0 mm 2 mps 736 mmHg 35%
03:00 +25°C° 0 mm 2 mps 736 mmHg 35%
04:00 +25°C° 0 mm 1 mps 735 mmHg 36%
05:00 +24°C° 0 mm 1 mps 735 mmHg 37%
06:00 +27°C° 0 mm 1 mps 736 mmHg 32%
07:00 +29°C° 0 mm 1 mps 736 mmHg 27%
08:00 +32°C° 0 mm 1 mps 736 mmHg 23%
09:00 +34°C° 0 mm 1 mps 736 mmHg 20%
10:00 +37°C° 0 mm 2 mps 736 mmHg 17%
11:00 +39°C° 0 mm 2 mps 736 mmHg 14%
12:00 +39°C° 0 mm 3 mps 735 mmHg 13%
13:00 +40°C° 0 mm 3 mps 735 mmHg 11%
14:00 +42°C° 0 mm 4 mps 734 mmHg 10%
15:00 +41°C° 0 mm 4 mps 733 mmHg 10%
16:00 +41°C° 0 mm 4 mps 733 mmHg 9%
17:00 +41°C° 0 mm 4 mps 733 mmHg 9%
18:00 +37°C° 0 mm 4 mps 733 mmHg 11%
19:00 +35°C° 0 mm 3 mps 733 mmHg 13%
20:00 +31°C° 0 mm 3 mps 734 mmHg 15%
21:00 +30°C° 0 mm 3 mps 734 mmHg 16%
22:00 +29°C° 0 mm 3 mps 734 mmHg 16%
23:00 +29°C° 0 mm 3 mps 734 mmHg 17%

Tomorrow, 20 April, Tuesday

Time Temperature Precipitation Wind Pressure Humidity
00:00 +28°C° 0 mm 3 mps 734 mmHg 17%
01:00 +28°C° 0 mm 3 mps 733 mmHg 17%
02:00 +27°C° 0 mm 2 mps 733 mmHg 17%
03:00 +27°C° 0 mm 2 mps 733 mmHg 17%
04:00 +27°C° 0 mm 1 mps 733 mmHg 16%
05:00 +27°C° 0 mm 1 mps 733 mmHg 16%
06:00 +29°C° 0 mm 1 mps 734 mmHg 15%
07:00 +30°C° 0 mm 2 mps 734 mmHg 13%
08:00 +32°C° 0 mm 2 mps 734 mmHg 12%
09:00 +34°C° 0 mm 3 mps 734 mmHg 13%
10:00 +35°C° 0 mm 3 mps 734 mmHg 13%
11:00 +36°C° 0 mm 3 mps 735 mmHg 14%
12:00 +36°C° 0 mm 4 mps 734 mmHg 14%
13:00 +36°C° 0 mm 4 mps 734 mmHg 15%
14:00 +36°C° 0 mm 5 mps 733 mmHg 15%
15:00 +36°C° 0 mm 6 mps 733 mmHg 16%
16:00 +35°C° 0 mm 6 mps 732 mmHg 16%
17:00 +35°C° 0 mm 6 mps 732 mmHg 16%
18:00 +32°C° 0.1 mm 7 mps 733 mmHg 26%
19:00 +28°C° 0.1 mm 7 mps 733 mmHg 35%
20:00 +23°C° 0.1 mm 7 mps 734 mmHg 45%
21:00 +23°C° 0 mm 5 mps 734 mmHg 43%
22:00 +24°C° 0 mm 3 mps 734 mmHg 42%
23:00 +25°C° 0 mm 1 mps 734 mmHg 41%

Day after tomorrow, 21 April, Wednesday

Time Temperature Precipitation Wind Pressure Humidity
00:00 +24°C° 0.1 mm 1 mps 734 mmHg 44%
01:00 +23°C° 0.1 mm 2 mps 734 mmHg 48%
02:00 +21°C° 0.1 mm 2 mps 734 mmHg 52%
03:00 +20°C° 0 mm 2 mps 734 mmHg 56%
04:00 +19°C° 0 mm 2 mps 735 mmHg 61%
05:00 +19°C° 0 mm 2 mps 735 mmHg 65%
06:00 +22°C° 0 mm 1 mps 735 mmHg 58%
07:00 +24°C° 0 mm 1 mps 736 mmHg 51%
08:00 +26°C° 0 mm 1 mps 737 mmHg 43%
09:00 +28°C° 0 mm 1 mps 737 mmHg 37%
10:00 +30°C° 0 mm 2 mps 737 mmHg 31%
11:00 +34°C° 0 mm 2 mps 737 mmHg 24%
12:00 +34°C° 0 mm 3 mps 737 mmHg 23%
13:00 +35°C° 0 mm 4 mps 736 mmHg 21%
14:00 +35°C° 0 mm 4 mps 736 mmHg 20%
15:00 +35°C° 0 mm 4 mps 735 mmHg 20%
16:00 +34°C° 0 mm 4 mps 735 mmHg 21%
17:00 +34°C° 0 mm 4 mps 735 mmHg 22%
18:00 +31°C° 0 mm 3 mps 735 mmHg 24%
19:00 +29°C° 0 mm 3 mps 735 mmHg 26%
20:00 +28°C° 0 mm 2 mps 736 mmHg 29%
21:00 +27°C° 0 mm 2 mps 736 mmHg 31%
22:00 +27°C° 0 mm 2 mps 736 mmHg 33%
23:00 +26°C° 0 mm 1 mps 736 mmHg 35%

22 April, Thursday

Time Temperature Precipitation Wind Pressure Humidity
00:00 +26°C° 0 mm 1 mps 736 mmHg 36%
01:00 +25°C° 0 mm 1 mps 735 mmHg 37%
02:00 +23°C° 0 mm 0 mps 735 mmHg 39%
03:00 +22°C° 0 mm 0 mps 735 mmHg 40%
04:00 +24°C° 0 mm 1 mps 736 mmHg 41%
05:00 +23°C° 0 mm 1 mps 736 mmHg 43%
06:00 +25°C° 0 mm 1 mps 736 mmHg 38%
07:00 +28°C° 0 mm 1 mps 737 mmHg 33%
08:00 +30°C° 0 mm 1 mps 738 mmHg 28%
09:00 +32°C° 0 mm 1 mps 737 mmHg 24%
10:00 +35°C° 0 mm 1 mps 737 mmHg 20%
11:00 +37°C° 0 mm 1 mps 737 mmHg 16%
12:00 +37°C° 0 mm 1 mps 737 mmHg 14%
13:00 +39°C° 0 mm 2 mps 736 mmHg 13%
14:00 +39°C° 0 mm 3 mps 735 mmHg 12%
15:00 +39°C° 0 mm 3 mps 735 mmHg 12%
16:00 +39°C° 0 mm 3 mps 735 mmHg 13%
17:00 +39°C° 0 mm 3 mps 734 mmHg 13%
18:00 +37°C° 0 mm 3 mps 735 mmHg 15%
19:00 +35°C° 0 mm 2 mps 735 mmHg 16%
20:00 +34°C° 0 mm 2 mps 735 mmHg 18%
21:00 +32°C° 0 mm 2 mps 735 mmHg 20%
22:00 +31°C° 0 mm 2 mps 735 mmHg 21%
23:00 +29°C° 0 mm 2 mps 735 mmHg 23%

23 April, Friday

Time Temperature Precipitation Wind Pressure Humidity
00:00 +29°C° 0 mm 2 mps 735 mmHg 23%
01:00 +28°C° 0 mm 2 mps 735 mmHg 24%
02:00 +28°C° 0 mm 3 mps 734 mmHg 25%
03:00 +27°C° 0 mm 3 mps 734 mmHg 28%
04:00 +26°C° 0 mm 3 mps 734 mmHg 30%
05:00 +25°C° 0 mm 3 mps 734 mmHg 33%
06:00 +28°C° 0 mm 4 mps 735 mmHg 29%
07:00 +30°C° 0 mm 4 mps 735 mmHg 26%
08:00 +33°C° 0 mm 5 mps 736 mmHg 22%
09:00 +35°C° 0 mm 5 mps 736 mmHg 20%
10:00 +36°C° 0 mm 6 mps 736 mmHg 18%
11:00 +39°C° 0 mm 6 mps 736 mmHg 16%
12:00 +40°C° 0 mm 5 mps 735 mmHg 15%
13:00 +41°C° 0 mm 5 mps 734 mmHg 13%
14:00 +42°C° 0 mm 4 mps 734 mmHg 11%
15:00 +42°C° 0 mm 5 mps 733 mmHg 11%
16:00 +41°C° 0 mm 5 mps 733 mmHg 12%
17:00 +41°C° 0 mm 6 mps 732 mmHg 12%
18:00 +39°C° 0 mm 6 mps 733 mmHg 15%
19:00 +36°C° 0 mm 6 mps 733 mmHg 18%
20:00 +33°C° 0 mm 6 mps 734 mmHg 21%
21:00 +32°C° 0 mm 5 mps 734 mmHg 23%
22:00 +30°C° 0 mm 4 mps 734 mmHg 25%
23:00 +28°C° 0 mm 3 mps 735 mmHg 28%

24 April, Saturday

Time Temperature Precipitation Wind Pressure Humidity
00:00 +28°C° 0 mm 3 mps 734 mmHg 28%
01:00 +27°C° 0 mm 3 mps 734 mmHg 29%
02:00 +27°C° 0 mm 3 mps 734 mmHg 29%
03:00 +27°C° 0 mm 3 mps 734 mmHg 30%
04:00 +26°C° 0 mm 3 mps 734 mmHg 31%
05:00 +26°C° 0 mm 2 mps 735 mmHg 32%
06:00 +28°C° 0 mm 2 mps 735 mmHg 28%
07:00 +31°C° 0 mm 2 mps 736 mmHg 24%
08:00 +34°C° 0 mm 2 mps 737 mmHg 20%
09:00 +36°C° 0 mm 2 mps 737 mmHg 17%
10:00 +39°C° 0 mm 2 mps 736 mmHg 14%
11:00 +42°C° 0 mm 3 mps 736 mmHg 10%
12:00 +43°C° 0 mm 3 mps 736 mmHg 9%
13:00 +44°C° 0 mm 4 mps 735 mmHg 8%
14:00 +45°C° 0 mm 4 mps 734 mmHg 7%
15:00 +45°C° 0 mm 5 mps 734 mmHg 7%
16:00 +45°C° 0 mm 5 mps 734 mmHg 6%
17:00 +45°C° 0 mm 6 mps 734 mmHg 6%
18:00 +41°C° 0 mm 5 mps 734 mmHg 8%
19:00 +37°C° 0 mm 4 mps 735 mmHg 10%
20:00 +34°C° 0 mm 3 mps 735 mmHg 12%
21:00 +34°C° 0 mm 3 mps 735 mmHg 13%
22:00 +33°C° 0 mm 3 mps 735 mmHg 14%
23:00 +31°C° 0 mm 3 mps 735 mmHg 15%
Show more